Location: Mentone
(34.5413°N, 85.5351°W)
Time: 07:12:50
(UTC-05:00)

ADEOS Rocket - Visible Passes

Search period start: 22 June 2017 00:00
Search period end: 02 July 2017 00:00
Orbit: 860 x 1306 km, 98.8° (Epoch: 21 June)

Date Brightness Start Highest point End Pass type
(mag) Time Alt. Az. Time Alt. Az. Time Alt. Az.
22 Jun 3.9 02:07:52 10° NNE 02:15:14 51° E 02:17:24 40° SE visible
22 Jun 4.5 03:53:54 10° N 04:00:12 29° WNW 04:04:21 17° WSW visible
23 Jun 5.0 01:20:26 10° NE 01:25:51 21° E 01:27:45 19° ESE visible
23 Jun 3.5 03:04:17 10° N 03:11:49 64° WNW 03:14:42 38° SW visible
23 Jun 5.4 04:54:25 10° NW 04:55:38 10° NW 04:56:49 10° WNW visible
24 Jun 3.7 02:15:30 10° NNE 02:22:58 59° E 02:25:04 44° SSE visible
24 Jun 4.7 04:01:54 10° NNW 04:07:44 25° WNW 04:12:01 15° WSW visible
25 Jun 4.8 01:27:47 10° NE 01:33:38 25° E 01:35:25 22° ESE visible
25 Jun 3.7 03:12:07 10° N 03:19:26 55° WNW 03:22:22 34° SW visible
26 Jun 3.5 02:23:10 10° NNE 02:30:40 68° E 02:32:43 47° SSE visible
26 Jun 4.9 04:09:58 10° NNW 04:15:16 21° WNW 04:19:40 12° WSW visible
27 Jun 4.6 01:35:13 10° NE 01:41:25 28° E 01:43:04 26° ESE visible
27 Jun 3.8 03:19:56 10° N 03:27:02 47° WNW 03:30:01 31° WSW visible
28 Jun 3.3 02:30:52 10° NNE 02:38:21 78° ESE 02:40:21 50° S visible
28 Jun 5.0 04:18:07 10° NNW 04:22:46 18° WNW 04:27:15 10° W visible
29 Jun 4.4 01:42:42 10° NNE 01:49:10 33° E 01:50:41 30° ESE visible
29 Jun 4.0 03:27:49 10° N 03:34:37 41° WNW 03:37:39 27° WSW visible
30 Jun 5.4 00:56:56 10° ENE 00:59:32 12° E 01:01:01 11° E visible
30 Jun 3.2 02:38:36 10° NNE 02:46:01 89° ESE 02:47:59 51° SSW visible
30 Jun 5.1 04:26:22 10° NNW 04:30:16 15° WNW 04:34:01 10° W visible
01 Jul 4.1 01:50:14 10° NNE 01:56:54 38° E 01:58:18 35° ESE visible
01 Jul 4.2 03:35:43 10° N 03:42:11 35° WNW 03:45:15 24° WSW visible
